����,���ϕ���(m/s),���ϕ���,�ő�u�ԕ���(m/s),�ő啗��������,�C��(��),���x(%),10���Ԉړ��ώZ�J��(mm),1���Ԉړ��ώZ�J��(mm),���J��(mm),�݌v�J��(mm)
2024-03-18T00:00:00+09:00,3.3,�k�k��,7.4,���k��,7.9,66.4,0,0,0.5,0.5
2024-03-18T00:01:00+09:00,3.2,�k�k��,7.4,���k��,7.8,66.9,0,0,0,0.5
2024-03-18T00:02:00+09:00,3.1,�k�k��,7.4,���k��,7.8,67.3,0,0,0,0.5
2024-03-18T00:03:00+09:00,3.2,�k�k��,7.4,���k��,7.8,67,0,0,0,0.5
2024-03-18T00:04:00+09:00,3.1,�k�k��,7.4,���k��,7.8,67,0,0,0,0.5
2024-03-18T00:05:00+09:00,2.9,�k�k��,7.4,���k��,7.8,67.4,0,0,0,0.5
2024-03-18T00:06:00+09:00,2.6,�k�k��,7.4,���k��,7.7,67,0,0,0,0.5
2024-03-18T00:07:00+09:00,2.5,�k�k��,5.6,�k��,7.8,66.4,0,0,0,0.5
2024-03-18T00:08:00+09:00,2.4,�k�k��,5.5,�k��,7.8,67,0,0,0,0.5
2024-03-18T00:09:00+09:00,2.2,�k�k��,5.5,�k��,7.7,67.1,0,0,0,0.5
2024-03-18T00:10:00+09:00,1.9,�k�k��,4.6,�k�k��,7.7,67.5,0,0,0,0.5
2024-03-18T00:11:00+09:00,1.8,�k�k��,4.1,�k,7.7,68.2,0,0,0,0.5
2024-03-18T00:12:00+09:00,1.9,�k�k��,5.1,���k��,7.7,67.4,0,0,0,0.5
2024-03-18T00:13:00+09:00,2.1,�k�k��,7.4,�k,7.6,64,0,0,0,0.5
2024-03-18T00:14:00+09:00,2.5,�k�k��,7.4,�k,7.7,63.9,0,0,0,0.5
2024-03-18T00:15:00+09:00,2.8,�k�k��,7.4,�k,7.7,64.4,0,0,0,0.5
2024-03-18T00:16:00+09:00,2.9,�k�k��,7.4,�k,7.7,63,0,0,0,0.5
2024-03-18T00:17:00+09:00,2.9,�k�k��,7.4,�k,7.7,62.5,0,0,0,0.5
2024-03-18T00:18:00+09:00,3.1,�k�k��,8.2,���k��,7.7,62.7,0,0,0,0.5
2024-03-18T00:19:00+09:00,3.3,�k�k��,8.2,���k��,7.7,61.4,0,0,0,0.5
2024-03-18T00:20:00+09:00,3.5,�k�k��,8.2,���k��,7.7,61.6,0,0,0,0.5
2024-03-18T00:21:00+09:00,3.7,�k�k��,8.2,���k��,7.7,61.6,0,0,0,0.5
2024-03-18T00:22:00+09:00,3.7,�k�k��,8.2,���k��,7.6,61.8,0,0,0,0.5
2024-03-18T00:23:00+09:00,3.5,�k�k��,8.2,���k��,7.6,62.1,0,0,0,0.5
2024-03-18T00:24:00+09:00,3.5,�k�k��,8.2,���k��,7.6,61.3,0,0,0,0.5
2024-03-18T00:25:00+09:00,3.4,�k�k��,8.2,���k��,7.6,60.6,0,0,0,0.5
2024-03-18T00:26:00+09:00,3.4,�k�k��,8.2,���k��,7.6,61.3,0,0,0,0.5
2024-03-18T00:27:00+09:00,3.5,�k��,8.2,���k��,7.6,60,0,0,0,0.5
2024-03-18T00:28:00+09:00,3.4,�k�k��,6.3,�k�k��,7.6,60.1,0,0,0,0.5
2024-03-18T00:29:00+09:00,3.3,�k�k��,6.3,�k�k��,7.6,60.3,0,0,0,0.5
2024-03-18T00:30:00+09:00,3.1,�k�k��,6.3,�k�k��,7.6,60.5,0,0,0,0.5
2024-03-18T00:31:00+09:00,3.1,�k�k��,6.3,�k�k��,7.6,59.7,0,0,0,0.5
2024-03-18T00:32:00+09:00,3.3,�k�k��,7.2,�k,7.6,59.3,0,0,0,0.5
2024-03-18T00:33:00+09:00,3.4,�k�k��,7.2,�k,7.6,58.6,0,0,0,0.5
2024-03-18T00:34:00+09:00,3.2,�k�k��,7.2,�k,7.6,57.5,0,0,0,0.5
2024-03-18T00:35:00+09:00,3,�k�k��,7.2,�k,7.5,58.5,0,0,0,0.5
2024-03-18T00:36:00+09:00,2.9,�k�k��,7.2,�k,7.6,58.8,0,0,0,0.5
2024-03-18T00:37:00+09:00,2.7,�k�k��,7.2,�k,7.5,58.9,0,0,0,0.5
2024-03-18T00:38:00+09:00,2.6,�k�k��,7.2,�k,7.5,57.9,0,0,0,0.5
2024-03-18T00:39:00+09:00,2.6,�k�k��,7.2,�k,7.5,57.4,0,0,0,0.5
2024-03-18T00:40:00+09:00,2.6,�k�k��,7.2,�k,7.5,57.6,0,0,0,0.5
2024-03-18T00:41:00+09:00,2.6,�k�k��,7.2,�k,7.5,57.1,0,0,0,0.5
2024-03-18T00:42:00+09:00,2.3,�k�k��,5.7,�k,7.5,57.3,0,0,0,0.5
2024-03-18T00:43:00+09:00,2,�k,4.2,�k�k��,7.5,58,0,0,0,0.5
2024-03-18T00:44:00+09:00,1.9,�k,4.2,�k�k��,7.5,57,0,0,0,0.5
2024-03-18T00:45:00+09:00,1.9,�k,4.2,�k�k��,7.5,57.6,0,0,0,0.5
2024-03-18T00:46:00+09:00,1.8,�k,4.2,�k�k��,7.6,57.8,0,0,0,0.5
2024-03-18T00:47:00+09:00,1.9,�k,4.2,�k�k��,7.5,57.5,0,0,0,0.5
2024-03-18T00:48:00+09:00,1.9,�k�k��,4,�k��,7.5,56.5,0,0,0,0.5
2024-03-18T00:49:00+09:00,1.8,�k�k��,4,�k��,7.5,57.6,0,0,0,0.5
2024-03-18T00:50:00+09:00,1.8,�k,4,�k��,7.4,58.1,0,0,0,0.5
2024-03-18T00:51:00+09:00,1.6,�k,4,�k��,7.3,59.5,0,0,0,0.5
2024-03-18T00:52:00+09:00,1.5,�k,4,�k��,7.3,60,0,0,0,0.5
2024-03-18T00:53:00+09:00,1.4,�k,4,�k��,7.3,59.9,0,0,0,0.5
2024-03-18T00:54:00+09:00,1.5,�k,4,�k��,7.3,59.2,0,0,0,0.5
2024-03-18T00:55:00+09:00,1.5,�k�k��,4,�k��,7.3,58.7,0,0,0,0.5
2024-03-18T00:56:00+09:00,1.6,�k�k��,4,�k��,7.4,59.2,0,0,0,0.5
2024-03-18T00:57:00+09:00,1.5,�k�k��,3.5,�k�k��,7.3,58.8,0,0,0,0.5
2024-03-18T00:58:00+09:00,1.6,�k,4,�k,7.4,59.1,0,0,0,0.5
2024-03-18T00:59:00+09:00,1.7,�k,4.9,�k�k��,7.3,59,0,0,0,0.5
2024-03-18T01:00:00+09:00,1.7,�k,4.9,�k�k��,7.4,58,0,0,0,0.5
2024-03-18T01:01:00+09:00,1.9,�k,4.9,�k�k��,7.3,57.2,0,0,0,0.5
2024-03-18T01:02:00+09:00,2,�k,4.9,�k�k��,7.3,58.2,0,0,0,0.5
2024-03-18T01:03:00+09:00,2.1,�k,4.9,�k�k��,7.3,58.4,0,0,0,0.5
2024-03-18T01:04:00+09:00,2.1,�k,4.9,�k�k��,7.3,58.2,0,0,0,0.5
2024-03-18T01:05:00+09:00,2.1,�k�k��,4.9,�k�k��,7.3,58.8,0,0,0,0.5
2024-03-18T01:06:00+09:00,2.2,�k�k��,4.9,�k�k��,7.3,58.6,0,0,0,0.5
2024-03-18T01:07:00+09:00,2.3,�k�k��,4.9,�k�k��,7.3,57.6,0,0,0,0.5
2024-03-18T01:08:00+09:00,2.3,�k�k��,4.9,�k�k��,7.3,57.9,0,0,0,0.5
2024-03-18T01:09:00+09:00,2.1,�k�k��,4.3,�k�k��,7.3,58.4,0,0,0,0.5
2024-03-18T01:10:00+09:00,2.2,�k�k��,4.3,�k�k��,7.3,58.3,0,0,0,0.5
2024-03-18T01:11:00+09:00,2.3,�k,5.8,�k�k��,7.3,57.8,0,0,0,0.5
2024-03-18T01:12:00+09:00,2.4,�k,5.8,�k�k��,7.3,56.7,0,0,0,0.5
2024-03-18T01:13:00+09:00,2.4,�k,5.8,�k�k��,7.3,57.5,0,0,0,0.5
2024-03-18T01:14:00+09:00,2.3,�k,5.8,�k�k��,7.3,57.9,0,0,0,0.5
2024-03-18T01:15:00+09:00,2.3,�k,5.8,�k�k��,7.2,58.7,0,0,0,0.5
2024-03-18T01:16:00+09:00,2.2,�k,5.8,�k�k��,7.2,57.4,0,0,0,0.5
2024-03-18T01:17:00+09:00,2.1,�k�k��,5.8,�k�k��,7.3,57.4,0,0,0,0.5
2024-03-18T01:18:00+09:00,2.2,�k�k��,5.8,�k�k��,7.3,56.9,0,0,0,0.5
2024-03-18T01:19:00+09:00,2.1,�k�k��,5.8,�k�k��,7.3,57.3,0,0,0,0.5
2024-03-18T01:20:00+09:00,2.1,�k�k��,5.8,�k�k��,7.3,58.4,0,0,0,0.5
2024-03-18T01:21:00+09:00,1.8,�k�k��,3.8,�k,7.2,59,0,0,0,0.5
2024-03-18T01:22:00+09:00,1.8,�k,3.8,�k,7.2,58.8,0,0,0,0.5
2024-03-18T01:23:00+09:00,1.6,�k�k��,3.7,�k��,7.1,60.1,0,0,0,0.5
2024-03-18T01:24:00+09:00,1.5,�k�k��,3.7,�k��,7.2,58.6,0,0,0,0.5
2024-03-18T01:25:00+09:00,1.5,�k�k��,3.7,�k��,7.2,58.5,0,0,0,0.5
2024-03-18T01:26:00+09:00,1.5,�k�k��,3.7,�k��,7.2,59,0,0,0,0.5
2024-03-18T01:27:00+09:00,1.6,�k,5,�k�k��,7.1,58.8,0,0,0,0.5
2024-03-18T01:28:00+09:00,1.9,�k,6.2,�k,7.2,57.2,0,0,0,0.5
2024-03-18T01:29:00+09:00,2,�k,6.2,�k,7.2,56.4,0,0,0,0.5
2024-03-18T01:30:00+09:00,2.1,�k�k��,6.2,�k,7.2,57.2,0,0,0,0.5
2024-03-18T01:31:00+09:00,2.2,�k�k��,6.2,�k,7.2,57.5,0,0,0,0.5
2024-03-18T01:32:00+09:00,2.3,�k�k��,6.2,�k,7.1,57.6,0,0,0,0.5
2024-03-18T01:33:00+09:00,2.5,�k�k��,6.2,�k,7.2,56.9,0,0,0,0.5
2024-03-18T01:34:00+09:00,2.9,�k�k��,6.2,�k,7.1,56.9,0,0,0,0.5
2024-03-18T01:35:00+09:00,3.2,�k�k��,9.5,�k,7.1,56.5,0,0,0,0.5
2024-03-18T01:36:00+09:00,3.6,�k�k��,9.5,�k,7.1,55.5,0,0,0,0.5
2024-03-18T01:37:00+09:00,3.7,�k,9.5,�k,7.1,55.4,0,0,0,0.5
2024-03-18T01:38:00+09:00,3.6,�k,9.5,�k,7.1,55.6,0,0,0,0.5
2024-03-18T01:39:00+09:00,3.7,�k�k��,9.5,�k,7.1,55.8,0,0,0,0.5
2024-03-18T01:40:00+09:00,3.9,�k�k��,9.5,�k,7.2,55.2,0,0,0,0.5
2024-03-18T01:41:00+09:00,3.9,�k�k��,9.5,�k,7.1,54.7,0,0,0,0.5
2024-03-18T01:42:00+09:00,3.9,�k�k��,9.5,�k,7.2,55,0,0,0,0.5
2024-03-18T01:43:00+09:00,4,�k�k��,9.5,�k,7.1,54.5,0,0,0,0.5
2024-03-18T01:44:00+09:00,3.7,�k�k��,9.5,�k,7.2,55,0,0,0,0.5
2024-03-18T01:45:00+09:00,3.5,�k�k��,8.3,�k�k��,7.1,55.1,0,0,0,0.5
2024-03-18T01:46:00+09:00,3.1,�k�k��,6.8,�k,7,56.7,0,0,0,0.5
2024-03-18T01:47:00+09:00,3.1,�k�k��,5.7,�k�k��,7,55.8,0,0,0,0.5
2024-03-18T01:48:00+09:00,3.2,�k�k��,7,�k�k��,7.1,54.9,0,0,0,0.5
2024-03-18T01:49:00+09:00,3.2,�k�k��,7,�k�k��,7.1,54.6,0,0,0,0.5
2024-03-18T01:50:00+09:00,3.1,�k�k��,7,�k�k��,7.1,54.7,0,0,0,0.5
2024-03-18T01:51:00+09:00,3.2,�k�k��,7,�k�k��,7.1,54.6,0,0,0,0.5
2024-03-18T01:52:00+09:00,3.2,�k�k��,7,�k�k��,7.1,54.3,0,0,0,0.5
2024-03-18T01:53:00+09:00,3.1,�k�k��,7,�k�k��,7.1,54.6,0,0,0,0.5
2024-03-18T01:54:00+09:00,3.2,�k��,7,�k�k��,7,55.1,0,0,0,0.5
2024-03-18T01:55:00+09:00,3.2,�k��,7,�k�k��,7,55.4,0,0,0,0.5
2024-03-18T01:56:00+09:00,3.2,�k��,7,�k�k��,6.9,55.7,0,0,0,0.5
2024-03-18T01:57:00+09:00,3.1,�k��,7,�k�k��,6.9,55.8,0,0,0,0.5
2024-03-18T01:58:00+09:00,2.8,�k��,5.8,�k�k��,6.9,55.7,0,0,0,0.5
2024-03-18T01:59:00+09:00,2.6,�k��,5.5,�k��,6.9,55.2,0,0,0,0.5
2024-03-18T02:00:00+09:00,2.7,�k��,6.1,�k��,6.9,54.9,0,0,0,0.5
2024-03-18T02:01:00+09:00,2.7,�k��,6.1,�k��,6.9,54.5,0,0,0,0.5
2024-03-18T02:02:00+09:00,2.5,�k��,6.1,�k��,7,54.1,0,0,0,0.5
2024-03-18T02:03:00+09:00,2.6,�k��,6.1,�k��,6.9,55.2,0,0,0,0.5
2024-03-18T02:04:00+09:00,2.6,�k�k��,6.1,�k��,6.9,54.4,0,0,0,0.5
2024-03-18T02:05:00+09:00,2.7,�k��,6.1,�k��,6.9,54.7,0,0,0,0.5
2024-03-18T02:06:00+09:00,2.7,�k��,6.1,�k��,6.9,54.9,0,0,0,0.5
2024-03-18T02:07:00+09:00,2.8,�k��,6.1,�k��,6.8,55.1,0,0,0,0.5
2024-03-18T02:08:00+09:00,3.1,�k��,6.1,�k��,6.8,55.8,0,0,0,0.5
2024-03-18T02:09:00+09:00,3.2,�k��,6.1,�k��,6.8,55.5,0,0,0,0.5
2024-03-18T02:10:00+09:00,3.2,�k��,6,�k�k��,6.8,55.7,0,0,0,0.5
2024-03-18T02:11:00+09:00,3.1,�k��,5.7,�k��,6.8,56.1,0,0,0,0.5
2024-03-18T02:12:00+09:00,3.4,�k��,5.9,�k�k��,6.8,55.9,0,0,0,0.5
2024-03-18T02:13:00+09:00,3.5,�k��,5.9,�k�k��,6.8,55.5,0,0,0,0.5
2024-03-18T02:14:00+09:00,3.4,�k��,5.9,�k�k��,6.8,55.7,0,0,0,0.5
2024-03-18T02:15:00+09:00,3.4,�k��,5.9,�k�k��,6.8,55.7,0,0,0,0.5
2024-03-18T02:16:00+09:00,3.2,�k�k��,5.9,�k�k��,6.8,55.3,0,0,0,0.5
2024-03-18T02:17:00+09:00,3.1,�k�k��,5.9,�k�k��,6.8,55.7,0,0,0,0.5
2024-03-18T02:18:00+09:00,2.7,�k��,5.9,�k�k��,6.7,55.8,0,0,0,0.5
2024-03-18T02:19:00+09:00,2.4,�k��,5.9,�k�k��,6.7,55.7,0,0,0,0.5
2024-03-18T02:20:00+09:00,2.2,�k��,5.9,�k�k��,6.7,56,0,0,0,0.5
2024-03-18T02:21:00+09:00,1.9,�k��,5.9,�k�k��,6.7,56,0,0,0,0.5
2024-03-18T02:22:00+09:00,1.6,�k��,5.6,�k�k��,6.7,56,0,0,0,0.5
2024-03-18T02:23:00+09:00,1.3,�k��,3.4,�k,6.6,56.5,0,0,0,0.5
2024-03-18T02:24:00+09:00,1.2,�k��,3.3,�k�k��,6.7,56.5,0,0,0,0.5
2024-03-18T02:25:00+09:00,1.2,�k��,3.1,�k�k��,6.7,56.2,0,0,0,0.5
2024-03-18T02:26:00+09:00,1.3,���k��,5,�k��,6.7,56.3,0,0,0,0.5
2024-03-18T02:27:00+09:00,1.3,���k��,5,�k��,6.8,55.9,0,0,0,0.5
2024-03-18T02:28:00+09:00,1.6,���k��,5,�k��,6.7,56.1,0,0,0,0.5
2024-03-18T02:29:00+09:00,1.8,�k��,5,�k��,6.7,56.2,0,0,0,0.5
2024-03-18T02:30:00+09:00,2,�k��,5,�k��,6.7,56.2,0,0,0,0.5
2024-03-18T02:31:00+09:00,2.3,�k��,5,�k��,6.7,56.2,0,0,0,0.5
2024-03-18T02:32:00+09:00,2.7,�k��,6.1,���k��,6.7,56.5,0,0,0,0.5
2024-03-18T02:33:00+09:00,2.9,�k��,6.1,���k��,6.8,56.8,0,0,0,0.5
2024-03-18T02:34:00+09:00,3.1,�k��,6.1,���k��,6.7,56.7,0,0,0,0.5
2024-03-18T02:35:00+09:00,3.2,�k��,6.1,���k��,6.8,56.4,0,0,0,0.5
2024-03-18T02:36:00+09:00,3.2,�k��,6.1,���k��,6.8,56.5,0,0,0,0.5
2024-03-18T02:37:00+09:00,3.3,�k��,6.1,���k��,6.7,56.7,0,0,0,0.5
2024-03-18T02:38:00+09:00,3.2,�k��,6.1,���k��,6.7,57,0,0,0,0.5
2024-03-18T02:39:00+09:00,3.3,�k��,6.1,���k��,6.7,57.5,0,0,0,0.5
2024-03-18T02:40:00+09:00,3.3,�k��,6.1,���k��,6.7,58,0,0,0,0.5
2024-03-18T02:41:00+09:00,3.2,�k��,6.1,���k��,6.7,57.9,0,0,0,0.5
2024-03-18T02:42:00+09:00,3,�k��,5.3,�k��,6.7,57.6,0,0,0,0.5
2024-03-18T02:43:00+09:00,2.9,�k��,5.3,�k��,6.7,57.6,0,0,0,0.5
2024-03-18T02:44:00+09:00,2.9,�k��,5.3,�k��,6.7,58.3,0,0,0,0.5
2024-03-18T02:45:00+09:00,2.9,�k��,5.3,�k��,6.7,57.9,0,0,0,0.5
2024-03-18T02:46:00+09:00,2.8,�k��,5.3,�k��,6.7,57.9,0,0,0,0.5
2024-03-18T02:47:00+09:00,2.8,�k��,5.3,�k��,6.7,58.1,0,0,0,0.5
2024-03-18T02:48:00+09:00,2.8,�k��,5.3,�k��,6.7,58.4,0,0,0,0.5
2024-03-18T02:49:00+09:00,2.6,�k��,4.7,�k�k��,6.7,58.2,0,0,0,0.5
2024-03-18T02:50:00+09:00,2.4,�k��,4.7,�k�k��,6.6,59,0,0,0,0.5
2024-03-18T02:51:00+09:00,2.5,�k��,4.7,�k�k��,6.6,59.6,0,0,0,0.5
2024-03-18T02:52:00+09:00,2.6,�k��,4.7,�k�k��,6.6,59.3,0,0,0,0.5
2024-03-18T02:53:00+09:00,2.5,�k��,4.7,�k�k��,6.6,59.5,0,0,0,0.5
2024-03-18T02:54:00+09:00,2.4,�k��,4.7,�k�k��,6.6,59.5,0,0,0,0.5
2024-03-18T02:55:00+09:00,2.3,�k��,4.7,�k��,6.7,58.7,0,0,0,0.5
2024-03-18T02:56:00+09:00,2.2,�k��,4.7,�k��,6.7,58.9,0,0,0,0.5
2024-03-18T02:57:00+09:00,2.1,�k��,4.7,�k��,6.6,59.5,0,0,0,0.5
2024-03-18T02:58:00+09:00,2.1,�k��,4.7,�k��,6.6,59.3,0,0,0,0.5
2024-03-18T02:59:00+09:00,2.2,�k��,4.7,�k��,6.6,59,0,0,0,0.5
2024-03-18T03:00:00+09:00,2.4,�k��,4.8,�k��,6.6,58.9,0,0,0,0.5
2024-03-18T03:01:00+09:00,2.3,�k��,4.8,�k��,6.6,59,0,0,0,0.5
2024-03-18T03:02:00+09:00,2.2,�k��,4.8,�k��,6.7,59.2,0,0,0,0.5
2024-03-18T03:03:00+09:00,2,�k��,4.8,�k��,6.6,59.6,0,0,0,0.5
2024-03-18T03:04:00+09:00,2,�k��,4.8,�k��,6.6,59.2,0,0,0,0.5
2024-03-18T03:05:00+09:00,2,�k��,4.8,�k��,6.6,59.4,0,0,0,0.5
2024-03-18T03:06:00+09:00,2.1,�k��,4.8,�k��,6.6,59.4,0,0,0,0.5
2024-03-18T03:07:00+09:00,2.1,�k��,4.8,�k��,6.6,59.8,0,0,0,0.5
2024-03-18T03:08:00+09:00,1.9,�k��,4.8,�k��,6.6,58.9,0,0,0,0.5
2024-03-18T03:09:00+09:00,1.8,�k��,4.8,�k��,6.6,59.1,0,0,0,0.5
2024-03-18T03:10:00+09:00,1.9,�k��,5.1,�k��,6.6,59.1,0,0,0,0.5
2024-03-18T03:11:00+09:00,1.9,�k��,5.1,�k��,6.6,59.5,0,0,0,0.5
2024-03-18T03:12:00+09:00,1.9,�k��,5.1,�k��,6.6,59.6,0,0,0,0.5
2024-03-18T03:13:00+09:00,1.9,�k��,5.1,�k��,6.6,59.1,0,0,0,0.5
2024-03-18T03:14:00+09:00,1.8,�k��,5.1,�k��,6.6,59.9,0,0,0,0.5
2024-03-18T03:15:00+09:00,1.8,�k��,5.1,�k��,6.6,59.7,0,0,0,0.5
2024-03-18T03:16:00+09:00,2,�k��,6.2,�k��,6.6,59.4,0,0,0,0.5
2024-03-18T03:17:00+09:00,2.2,�k��,6.4,���k��,6.6,58.4,0,0,0,0.5
2024-03-18T03:18:00+09:00,2.5,�k��,6.8,���k��,6.6,58.9,0,0,0,0.5
2024-03-18T03:19:00+09:00,2.6,�k��,6.8,���k��,6.5,59.8,0,0,0,0.5
2024-03-18T03:20:00+09:00,2.4,�k��,6.8,���k��,6.6,59.5,0,0,0,0.5
2024-03-18T03:21:00+09:00,2.5,�k��,6.8,���k��,6.5,58.6,0,0,0,0.5
2024-03-18T03:22:00+09:00,2.6,�k��,6.8,���k��,6.6,58.7,0,0,0,0.5
2024-03-18T03:23:00+09:00,2.7,�k��,6.8,���k��,6.5,58.9,0,0,0,0.5
2024-03-18T03:24:00+09:00,2.8,�k��,6.8,���k��,6.6,57.9,0,0,0,0.5
2024-03-18T03:25:00+09:00,2.9,�k�k��,6.8,���k��,6.5,58.1,0,0,0,0.5
2024-03-18T03:26:00+09:00,2.8,�k�k��,6.8,���k��,6.5,58.4,0,0,0,0.5
2024-03-18T03:27:00+09:00,2.5,�k�k��,6.8,���k��,6.5,58.7,0,0,0,0.5
2024-03-18T03:28:00+09:00,2.3,�k�k��,5.9,�k�k��,6.5,57.8,0,0,0,0.5
2024-03-18T03:29:00+09:00,2.4,�k�k��,5.9,�k�k��,6.5,58.3,0,0,0,0.5
2024-03-18T03:30:00+09:00,2.5,�k�k��,5.9,�k�k��,6.5,57.7,0,0,0,0.5
2024-03-18T03:31:00+09:00,2.6,�k�k��,6.4,�k�k��,6.5,57.6,0,0,0,0.5
2024-03-18T03:32:00+09:00,2.7,�k�k��,6.4,�k�k��,6.5,57.1,0,0,0,0.5
2024-03-18T03:33:00+09:00,2.8,�k�k��,6.4,�k�k��,6.4,58,0,0,0,0.5
2024-03-18T03:34:00+09:00,3,�k�k��,6.4,�k�k��,6.3,57.9,0,0,0,0.5
2024-03-18T03:35:00+09:00,3.1,�k�k��,6.4,�k�k��,6.4,57.3,0,0,0,0.5
2024-03-18T03:36:00+09:00,3.2,�k�k��,6.4,�k�k��,6.4,57.2,0,0,0,0.5
2024-03-18T03:37:00+09:00,3.3,�k�k��,6.4,�k�k��,6.4,58,0,0,0,0.5
2024-03-18T03:38:00+09:00,3.3,�k�k��,6.4,�k�k��,6.4,57.7,0,0,0,0.5
2024-03-18T03:39:00+09:00,3.3,�k�k��,6.4,�k�k��,6.4,57,0,0,0,0.5
2024-03-18T03:40:00+09:00,3.2,�k�k��,6.4,�k�k��,6.4,56.6,0,0,0,0.5
2024-03-18T03:41:00+09:00,3.1,�k�k��,5.6,�k,6.4,56.4,0,0,0,0.5
2024-03-18T03:42:00+09:00,3,�k��,5.6,�k,6.5,56.7,0,0,0,0.5
2024-03-18T03:43:00+09:00,3,�k��,5.6,�k,6.4,56.4,0,0,0,0.5
2024-03-18T03:44:00+09:00,3.1,�k��,5.6,�k,6.5,56.4,0,0,0,0.5
2024-03-18T03:45:00+09:00,3,�k��,5.1,�k��,6.4,57.2,0,0,0,0.5
2024-03-18T03:46:00+09:00,3.1,�k��,5.2,�k��,6.4,57.3,0,0,0,0.5
2024-03-18T03:47:00+09:00,3.2,�k��,6.3,�k�k��,6.4,57.4,0,0,0,0.5
2024-03-18T03:48:00+09:00,3.2,�k��,6.3,�k�k��,6.4,57.1,0,0,0,0.5
2024-03-18T03:49:00+09:00,3,�k��,6.3,�k�k��,6.4,57.8,0,0,0,0.5
2024-03-18T03:50:00+09:00,2.9,�k��,6.3,�k�k��,6.3,57.7,0,0,0,0.5
2024-03-18T03:51:00+09:00,3,�k��,7,�k,6.3,57.8,0,0,0,0.5
2024-03-18T03:52:00+09:00,3,�k��,7,�k,6.3,57,0,0,0,0.5
2024-03-18T03:53:00+09:00,2.9,�k�k��,7,�k,6.3,56.7,0,0,0,0.5
2024-03-18T03:54:00+09:00,2.9,�k�k��,7,�k,6.3,56.6,0,0,0,0.5
2024-03-18T03:55:00+09:00,2.9,�k�k��,7,�k,6.3,57.2,0,0,0,0.5
2024-03-18T03:56:00+09:00,2.8,�k�k��,7,�k,6.3,57.6,0,0,0,0.5
2024-03-18T03:57:00+09:00,2.5,�k�k��,7,�k,6.3,57.1,0,0,0,0.5
2024-03-18T03:58:00+09:00,2.6,�k�k��,7,�k,6.3,57,0,0,0,0.5
2024-03-18T03:59:00+09:00,2.7,�k�k��,7,�k,6.3,56.8,0,0,0,0.5
2024-03-18T04:00:00+09:00,2.8,�k�k��,7,�k,6.3,56.8,0,0,0,0.5
2024-03-18T04:01:00+09:00,2.8,�k�k��,5.6,���k��,6.3,56.5,0,0,0,0.5
2024-03-18T04:02:00+09:00,2.9,�k�k��,5.6,���k��,6.3,56.6,0,0,0,0.5
2024-03-18T04:03:00+09:00,2.9,�k�k��,5.6,���k��,6.2,56.8,0,0,0,0.5
2024-03-18T04:04:00+09:00,3,�k��,6.5,�k�k��,6.3,57,0,0,0,0.5
2024-03-18T04:05:00+09:00,3.1,�k��,6.5,�k�k��,6.3,56.9,0,0,0,0.5
2024-03-18T04:06:00+09:00,3.2,�k��,6.5,�k�k��,6.3,57.1,0,0,0,0.5
2024-03-18T04:07:00+09:00,3.2,�k�k��,6.5,�k�k��,6.2,57.4,0,0,0,0.5
2024-03-18T04:08:00+09:00,3.1,�k�k��,6.5,�k�k��,6.2,57.8,0,0,0,0.5
2024-03-18T04:09:00+09:00,3.1,�k�k��,6.5,�k�k��,6.2,57.8,0,0,0,0.5
2024-03-18T04:10:00+09:00,2.9,�k�k��,6.5,�k�k��,6.3,57,0,0,0,0.5
2024-03-18T04:11:00+09:00,2.7,�k�k��,6.5,�k�k��,6.2,57.7,0,0,0,0.5
2024-03-18T04:12:00+09:00,2.6,�k�k��,6.5,�k�k��,6.2,57.3,0,0,0,0.5
2024-03-18T04:13:00+09:00,2.6,�k�k��,6.5,�k�k��,6.3,56.6,0,0,0,0.5
2024-03-18T04:14:00+09:00,2.4,�k�k��,5.5,�k��,6.2,57.4,0,0,0,0.5
2024-03-18T04:15:00+09:00,2.4,�k�k��,4.8,�k�k��,6.2,57.1,0,0,0,0.5
2024-03-18T04:16:00+09:00,2.4,�k�k��,5.5,�k,6.2,57.4,0,0,0,0.5
2024-03-18T04:17:00+09:00,2.4,�k�k��,5.5,�k,6.2,57.6,0,0,0,0.5
2024-03-18T04:18:00+09:00,2.5,�k�k��,5.5,�k,6,58.5,0,0,0,0.5
2024-03-18T04:19:00+09:00,2.6,�k�k��,5.5,�k,6.1,58.2,0,0,0,0.5
2024-03-18T04:20:00+09:00,3,�k�k��,8.8,�k��,6.1,58.1,0,0,0,0.5
2024-03-18T04:21:00+09:00,3.3,�k�k��,8.8,�k��,6.1,58.2,0,0,0,0.5
2024-03-18T04:22:00+09:00,3.4,�k�k��,8.8,�k��,6.1,58.1,0,0,0,0.5
2024-03-18T04:23:00+09:00,3.5,�k�k��,8.8,�k��,6.1,58,0,0,0,0.5
2024-03-18T04:24:00+09:00,3.3,�k�k��,8.8,�k��,6.1,58.3,0,0,0,0.5
2024-03-18T04:25:00+09:00,3.2,�k�k��,8.8,�k��,6.1,58.5,0,0,0,0.5
2024-03-18T04:26:00+09:00,3,�k�k��,8.8,�k��,6.1,58.3,0,0,0,0.5
2024-03-18T04:27:00+09:00,3,�k�k��,8.8,�k��,6.1,57.9,0,0,0,0.5
2024-03-18T04:28:00+09:00,2.9,�k�k��,8.8,�k��,6.1,57.3,0,0,0,0.5
2024-03-18T04:29:00+09:00,2.8,�k�k��,8.8,�k��,6.1,57.8,0,0,0,0.5
2024-03-18T04:30:00+09:00,2.4,�k�k��,6.2,�k,6.1,58.1,0,0,0,0.5
2024-03-18T04:31:00+09:00,2.2,�k�k��,4.2,�k�k��,6.1,58,0,0,0,0.5
2024-03-18T04:32:00+09:00,2.1,�k�k��,4.2,�k�k��,6.1,58,0,0,0,0.5
2024-03-18T04:33:00+09:00,2.2,�k�k��,4.3,�k�k��,6.1,58,0,0,0,0.5
2024-03-18T04:34:00+09:00,2.2,�k�k��,4.3,�k�k��,6.1,58.3,0,0,0,0.5
2024-03-18T04:35:00+09:00,2.2,�k�k��,4.3,�k�k��,6.1,58.3,0,0,0,0.5
2024-03-18T04:36:00+09:00,2.1,�k�k��,4.3,�k�k��,6.1,58.2,0,0,0,0.5
2024-03-18T04:37:00+09:00,2.1,�k,4.3,�k�k��,6.1,59,0,0,0,0.5
2024-03-18T04:38:00+09:00,2,�k,4.3,�k�k��,6.1,59,0,0,0,0.5
2024-03-18T04:39:00+09:00,2.1,�k,4.3,�k�k��,6.1,58.8,0,0,0,0.5
2024-03-18T04:40:00+09:00,2.2,�k,4.6,�k��,6,59,0,0,0,0.5
2024-03-18T04:41:00+09:00,2.4,�k�k��,5.5,�k��,6,58.3,0,0,0,0.5
2024-03-18T04:42:00+09:00,2.5,�k�k��,5.5,�k��,6.1,58.5,0,0,0,0.5
2024-03-18T04:43:00+09:00,2.5,�k,5.5,�k��,6.1,58.3,0,0,0,0.5
2024-03-18T04:44:00+09:00,2.4,�k,5.5,�k��,6.1,58,0,0,0,0.5
2024-03-18T04:45:00+09:00,2.5,�k�k��,5.5,�k��,6.1,57.7,0,0,0,0.5
2024-03-18T04:46:00+09:00,2.6,�k�k��,5.5,�k��,6.1,58.4,0,0,0,0.5
2024-03-18T04:47:00+09:00,2.9,�k�k��,6.4,�k��,6,58,0,0,0,0.5
2024-03-18T04:48:00+09:00,3.3,�k�k��,6.4,�k��,6,58.2,0,0,0,0.5
2024-03-18T04:49:00+09:00,3.2,�k�k��,6.4,�k��,6,57.9,0,0,0,0.5
2024-03-18T04:50:00+09:00,3.1,�k�k��,6.4,�k��,6,58.1,0,0,0,0.5
2024-03-18T04:51:00+09:00,3,�k�k��,6.4,�k��,6,58.1,0,0,0,0.5
2024-03-18T04:52:00+09:00,3.2,�k�k��,6.5,�k��,6,57,0,0,0,0.5
2024-03-18T04:53:00+09:00,3.3,�k��,7.2,�k��,6.1,56.9,0,0,0,0.5
2024-03-18T04:54:00+09:00,3.3,�k��,7.2,�k��,6.1,57.2,0,0,0,0.5
2024-03-18T04:55:00+09:00,3.5,�k��,7.2,�k��,6.1,57.4,0,0,0,0.5
2024-03-18T04:56:00+09:00,3.6,�k��,7.2,�k��,6.1,57.3,0,0,0,0.5
2024-03-18T04:57:00+09:00,3.6,�k��,7.2,�k��,6.1,56.9,0,0,0,0.5
2024-03-18T04:58:00+09:00,3.4,�k��,7.2,�k��,6.1,56.7,0,0,0,0.5
2024-03-18T04:59:00+09:00,3.5,�k�k��,7.2,�k��,6,57.5,0,0,0,0.5
2024-03-18T05:00:00+09:00,3.7,�k�k��,7.2,�k��,6,57.4,0,0,0,0.5
2024-03-18T05:01:00+09:00,3.7,�k�k��,7.2,�k��,6,57.3,0,0,0,0.5
2024-03-18T05:02:00+09:00,3.4,�k�k��,7.2,�k��,6,57.8,0,0,0,0.5
2024-03-18T05:03:00+09:00,3.2,�k�k��,6.1,�k�k��,6,57.5,0,0,0,0.5
2024-03-18T05:04:00+09:00,3.1,�k�k��,6.1,�k�k��,6.1,57.2,0,0,0,0.5
2024-03-18T05:05:00+09:00,3.1,�k�k��,6.1,�k�k��,6,57.4,0,0,0,0.5
2024-03-18T05:06:00+09:00,3,�k�k��,6.1,�k�k��,6,57.6,0,0,0,0.5
2024-03-18T05:07:00+09:00,2.8,�k,5.3,�k,6,58.4,0,0,0,0.5
2024-03-18T05:08:00+09:00,2.6,�k,5.3,�k,6,57.9,0,0,0,0.5
2024-03-18T05:09:00+09:00,2.5,�k,5.3,�k,6,58.4,0,0,0,0.5
2024-03-18T05:10:00+09:00,2.5,�k,5.4,�k�k��,6,57,0,0,0,0.5
2024-03-18T05:11:00+09:00,2.6,�k,5.4,�k�k��,6.1,56.9,0,0,0,0.5
2024-03-18T05:12:00+09:00,2.9,�k,6.8,�k�k��,6.1,57.3,0,0,0,0.5
2024-03-18T05:13:00+09:00,3.1,�k,6.8,�k�k��,6.1,56.7,0,0,0,0.5
2024-03-18T05:14:00+09:00,3.1,�k,6.8,�k�k��,6.1,57.8,0,0,0,0.5
2024-03-18T05:15:00+09:00,3.1,�k,6.8,�k�k��,6,58,0,0,0,0.5
2024-03-18T05:16:00+09:00,3.2,�k,6.8,�k�k��,6.1,56.8,0,0,0,0.5
2024-03-18T05:17:00+09:00,3.3,�k,6.8,�k�k��,6.1,57.1,0,0,0,0.5
2024-03-18T05:18:00+09:00,3.3,�k,6.8,�k�k��,6,57.3,0,0,0,0.5
2024-03-18T05:19:00+09:00,3.2,�k,6.8,�k�k��,6.1,56.6,0,0,0,0.5
2024-03-18T05:20:00+09:00,3,�k,6.8,�k�k��,6,57.1,0,0,0,0.5
2024-03-18T05:21:00+09:00,2.9,�k,6.8,�k�k��,6,57,0,0,0,0.5
2024-03-18T05:22:00+09:00,2.7,�k,6.5,�k,6,56.9,0,0,0,0.5
2024-03-18T05:23:00+09:00,2.6,�k,5.6,�k�k��,6,57.4,0,0,0,0.5
2024-03-18T05:24:00+09:00,2.6,�k�k��,5.6,�k�k��,6,56.8,0,0,0,0.5
2024-03-18T05:25:00+09:00,2.6,�k�k��,5.6,�k�k��,6,56.6,0,0,0,0.5
2024-03-18T05:26:00+09:00,2.5,�k�k��,5.6,�k�k��,6,56.9,0,0,0,0.5
2024-03-18T05:27:00+09:00,2.4,�k�k��,5.6,�k�k��,6,57.5,0,0,0,0.5
2024-03-18T05:28:00+09:00,2.3,�k�k��,5.6,�k�k��,6.1,57,0,0,0,0.5
2024-03-18T05:29:00+09:00,2.4,�k��,5.6,�k�k��,6.1,57,0,0,0,0.5
2024-03-18T05:30:00+09:00,2.4,�k��,5.6,�k�k��,6,57.3,0,0,0,0.5
2024-03-18T05:31:00+09:00,2.4,�k��,5.6,�k�k��,6.1,56.4,0,0,0,0.5
2024-03-18T05:32:00+09:00,2.3,�k��,5.6,�k�k��,6.1,56.3,0,0,0,0.5
2024-03-18T05:33:00+09:00,2.2,�k��,4.5,���k��,6.1,56.4,0,0,0,0.5
2024-03-18T05:34:00+09:00,2.1,�k��,5.4,�k�k��,6.1,56.6,0,0,0,0.5
2024-03-18T05:35:00+09:00,2.2,�k�k��,6.1,�k,6.1,57.2,0,0,0,0.5
2024-03-18T05:36:00+09:00,2.4,�k�k��,6.1,�k,6.1,56.4,0,0,0,0.5
2024-03-18T05:37:00+09:00,2.5,�k�k��,6.1,�k,6,57.4,0,0,0,0.5
2024-03-18T05:38:00+09:00,2.7,�k�k��,6.1,�k,6,57.2,0,0,0,0.5
2024-03-18T05:39:00+09:00,2.8,�k�k��,6.1,�k,6,57.1,0,0,0,0.5
2024-03-18T05:40:00+09:00,2.9,�k�k��,6.1,�k,6,57.1,0,0,0,0.5
2024-03-18T05:41:00+09:00,3,�k�k��,6.1,�k,6.1,56.5,0,0,0,0.5
2024-03-18T05:42:00+09:00,3.1,�k�k��,6.1,�k,6.1,56.6,0,0,0,0.5
2024-03-18T05:43:00+09:00,3.1,�k�k��,6.1,�k,6,57.6,0,0,0,0.5
2024-03-18T05:44:00+09:00,3.2,�k�k��,6.9,�k��,6,57.5,0,0,0,0.5
2024-03-18T05:45:00+09:00,3.3,�k�k��,7.1,�k�k��,6,56.9,0,0,0,0.5
2024-03-18T05:46:00+09:00,3.4,�k�k��,7.1,�k�k��,6.1,56,0,0,0,0.5
2024-03-18T05:47:00+09:00,3.5,�k�k��,7.1,�k�k��,6,56.3,0,0,0,0.5
2024-03-18T05:48:00+09:00,3.5,�k�k��,7.1,�k�k��,6,56.7,0,0,0,0.5
2024-03-18T05:49:00+09:00,3.4,�k�k��,7.1,�k�k��,6,56.8,0,0,0,0.5
2024-03-18T05:50:00+09:00,3.4,�k�k��,7.1,�k�k��,6,56.8,0,0,0,0.5
2024-03-18T05:51:00+09:00,3.3,�k�k��,7.1,�k�k��,6,56.5,0,0,0,0.5
2024-03-18T05:52:00+09:00,3.3,�k�k��,7.1,�k�k��,6,56,0,0,0,0.5
2024-03-18T05:53:00+09:00,3.3,�k�k��,7.1,�k�k��,6,55.6,0,0,0,0.5
2024-03-18T05:54:00+09:00,3.4,�k,7.1,�k�k��,6,55.8,0,0,0,0.5
2024-03-18T05:55:00+09:00,3.3,�k,6.8,�k,6.1,54.6,0,0,0,0.5
2024-03-18T05:56:00+09:00,3.3,�k,6.8,�k,6.1,54.2,0,0,0,0.5
2024-03-18T05:57:00+09:00,3.3,�k,5.9,�k�k��,6.1,55,0,0,0,0.5
2024-03-18T05:58:00+09:00,3.3,�k,5.9,�k�k��,6.1,54.9,0,0,0,0.5
2024-03-18T05:59:00+09:00,3.3,�k�k��,5.9,�k�k��,6,54.7,0,0,0,0.5
2024-03-18T06:00:00+09:00,3.3,�k�k��,5.9,�k�k��,6,53.4,0,0,0,0.5
2024-03-18T06:01:00+09:00,3.5,�k�k��,7.1,�k�k��,6,53.4,0,0,0,0.5
2024-03-18T06:02:00+09:00,3.7,�k�k��,7.8,�k�k��,6.2,50.5,0,0,0,0.5
2024-03-18T06:03:00+09:00,4,�k�k��,8.4,�k�k��,6.2,48.8,0,0,0,0.5
2024-03-18T06:04:00+09:00,4.3,�k�k��,10.1,�k,6.3,48.6,0,0,0,0.5
2024-03-18T06:05:00+09:00,4.5,�k�k��,12.7,�k��,6.3,48.8,0,0,0,0.5
2024-03-18T06:06:00+09:00,4.7,�k�k��,12.7,�k��,6.3,48.1,0,0,0,0.5
2024-03-18T06:07:00+09:00,5,�k�k��,12.7,�k��,6.3,48.5,0,0,0,0.5
2024-03-18T06:08:00+09:00,5.4,�k�k��,12.7,�k��,6.4,47.9,0,0,0,0.5
2024-03-18T06:09:00+09:00,5.6,�k�k��,12.7,�k��,6.3,48.4,0,0,0,0.5
2024-03-18T06:10:00+09:00,5.7,�k�k��,12.7,�k��,6.3,49,0,0,0,0.5
2024-03-18T06:11:00+09:00,5.6,�k�k��,12.7,�k��,6.2,48.8,0,0,0,0.5
2024-03-18T06:12:00+09:00,5.5,�k�k��,12.7,�k��,6.2,48.7,0,0,0,0.5
2024-03-18T06:13:00+09:00,5.3,�k�k��,12.7,�k��,6.2,49.1,0,0,0,0.5
2024-03-18T06:14:00+09:00,5.1,�k�k��,12.7,�k��,6.2,48.7,0,0,0,0.5